KC1FX Weather Reports


Display with metric or nautical units.
time (UTC)temp
F
wind
direction
speed
MPH
gust
MPH
rain 1hr
in
rain 24hr
in
rain mn
in
humidity
%
barometer
mb
20260507150003 44 183 4.0 7.0 0.00 1.00 0.01 99 1006.3
20260507140023 44 135 2.0 3.0 0.00 1.02 0.01 99 1006.2
20260507130003 44 0 0.0 0.0 0.00 1.03 0.01 99 1006.4
20260507120002 42 0 0.0 0.0 0.00 1.03 0.01 99 1006.3
20260507110023 40 0 0.0 0.0 0.01 1.03 0.01 99 1006.3
20260507100003 37 0 0.0 0.0 0.00 1.02 0.00 99 1006.2
20260507090024 38 135 0.0 2.0 0.00 1.02 0.00 99 1006.2
20260507080003 38 0 0.0 0.0 0.00 1.02 0.00 99 1006.0
20260507070005 41 0 0.0 0.0 0.00 1.05 0.00 99 1006.0
20260507060023 41 0 0.0 0.0 0.00 1.06 0.00 99 1005.9
20260507050003 42 135 0.0 2.0 0.00 1.07 0.00 99 1006.2
20260507040003 42 135 3.0 3.0 0.01 1.07 0.00 99 1006.1
20260507030003 42 135 2.0 3.0 0.06 1.06 1.06 99 1006.8
20260507020003 43 0 0.0 0.0 0.06 1.00 1.00 99 1006.6
20260507010003 44 0 0.0 0.0 0.05 0.94 0.94 99 1005.7
20260507000003 45 135 0.0 1.0 0.03 0.89 0.89 99 1005.2
20260506230003 46 0 0.0 0.0 0.09 0.86 0.86 99 1004.9
20260506220024 46 0 0.0 0.0 0.19 0.77 0.77 99 1004.7
20260506210004 48 360 0.0 2.0 0.01 0.70 0.58 99 1004.0
20260506200003 52 360 0.0 2.0 0.19 0.70 0.57 99 1003.7
20260506190024 55 346 2.0 2.0 0.16 0.51 0.38 99 1003.9
20260506180004 57 43 2.0 5.0 0.05 0.35 0.22 99 1004.5
20260506170004 57 0 0.0 0.0 0.05 0.30 0.17 99 1004.7
20260506160003 55 0 0.0 0.0 0.04 0.25 0.12 99 1005.7